Eutelsat II F-4

operational
NORAD ID: 22028 Int'l Des: 1992-041 Owner: EUTEL Country: I-EUT
HEOCIRCULAR

About Eutelsat II F-4

Description loading...

Live Position

Loading 3D Globe...

Upcoming Passes

Altitude History

Altitude vs Time

uPlot chart will show altitude changes over time

Two-Line Element Set

1 22028U 92041B 26049.94063556 .00000047 00000-0 00000+0 0 9999
2 22028 14.6862 6.3163 0009676 266.3052 98.8012 0.99074992 45583
Epoch: Feb 18, 2026 • Age: 11 hours

Current Status

Altitude 36133.0 km
Velocity 3.06 km/s
Sub-Earth Point 3.85°N, 117.65°W
Launch Date Jul 9, 1992
Age 33.6 years
Type other

Technical Details

Classification Payload
Mass 1878.00 kg
Dry Mass 921.00 kg
Total Mass 1878.00 kg
Length 2.20 m
Diameter 1.60 m
Span 22.40 m
Shape Box + 2 Pan
Manufacturer AESPC/DASAO
Bus Type Spacebus 2000
Phase Status Renamed
Owner/State EUTEL/I-EUT

Large Constellations

Loading constellations...